Hourly Data Report for June 04, 2021

WINNIPEG THE FORKS
MANITOBA
Current Station Operator: ECCC - MSC

49°53'18.008" N
97°07'46.007" W
230.00 m
5023262
71579
XWN

Download Data

Hourly Data (June 2021)
Hourly Data Report for June 4, 2021
TIME
LST
Temp Definition
°C
Dew Point Definition
°C
Rel Hum Definition
%
Precip. Amount Definition
mm

Wind Dir Definition
10's deg

Wind Spd Definition
km/h
Visibility Definition
km
Stn Press Definition
kPa
Hmdx Definition


Wind Chill Definition


Weather Definition


00:00 22.4 9.1 43 0.0 7 2   97.75     LegendNANA
01:00 21.1 11.0 53 0.0 19 3   97.71     LegendNANA
02:00 20.7 10.9 54 0.0 20 4   97.64     LegendNANA
03:00 20.4 11.6 57 0.0 20 3   97.58     LegendNANA
04:00 21.4 11.5 53 0.0 19 8   97.48     LegendNANA
05:00 21.4 11.5 53 0.0 20 8   97.44     LegendNANA
06:00 22.6 11.4 49 0.0 20 11   97.38 25   LegendNANA
07:00 24.0 12.1 47 0.0 20 9   97.29 26   LegendNANA
08:00 26.5 11.8 40 0.0 20 11   97.21 29   LegendNANA
09:00 29.8 11.7 33 0.0 21 12   97.13 32   LegendNANA
10:00 33.5 10.2 24 0.0 24 9   97.08 35   LegendNANA
11:00 33.0 9.6 24 0.0 28 9   97.11 34   LegendNANA
12:00 33.5 9.6 23 0.0 29 8   97.09 35   LegendNANA
13:00 34.7 10.9 23 0.0 3 6   97.03 36   LegendNANA
14:00 34.6 9.1 21 0.0 32 9   97.05 35   LegendNANA
15:00 35.0 10.9 23 0.0 33 10   97.05 37   LegendNANA
16:00 34.0 10.4 24 0.0 32 13   97.07 35   LegendNANA
17:00 33.4 10.8 25 0.0 34 16   97.06 35   LegendNANA
18:00 28.8 12.9 37 0.0 2 13   97.17 32   LegendNANA
19:00 27.1 13.0 42 0.0 2 12   97.24 30   LegendNANA
20:00 25.4 10.0 38 0.0 2 12   97.34 27   LegendNANA
21:00 23.7 11.1 45 0.0 4 7   97.43 26   LegendNANA
22:00 22.0 12.3 54 0.0 3 4   97.54     LegendNANA
23:00 20.5 12.4 60 0.0 2 3   97.58     LegendNANA

Notes on Data Quality.

Legend

  • E = Estimated
  • M = Missing
  • NA = Not Available*
  • [empty] = Indicates an unobserved value
Date modified: